Weather History for Chicago Lansing, IL

Change the Weather History Date:

Saturday, February 8, 2014

  Actual Average (KMDW) Record (KMDW)
Temperature  
Mean Temperature 8 °F 27 °F  
Max Temperature 15 °F 34 °F 61 °F (1990)
Min Temperature 0 °F 20 °F -12 °F (1933)
Degree Days  
Heating Degree Days 58 38  
Month to date heating degree days 311  
Since 1 July heating degree days 3807  
Cooling Degree Days 0 0  
Month to date cooling degree days 0  
Year to date cooling degree days 0  
Moisture  
Dew Point 6 °F    
Average Humidity 80    
Maximum Humidity 89    
Minimum Humidity 73    
Precipitation  
Precipitation 0.00 in 0.07 in 0.81 in (2001)
Month to date precipitation 0.46  
Year to date precipitation 2.52  
Sea Level Pressure  
Sea Level Pressure 30.23 in    
Wind  
Wind Speed 3 mph (South)    
Max Wind Speed 8 mph    
Max Gust Speed -    
Visibility 6 miles    
Events Snow    
T = Trace of Precipitation, MM = Missing Value Source: NWS Daily Summary

Daily Weather History Graph

Daily Weather History Graph

Search for Another Location

Airport:

Trip Planner

Search our weather history database for the weather conditions in past years. The results will help you decide how hot, cold, wet, or windy it might be!

Date:

Astronomy

Feb. 08, 2014 Rise Set
Actual Time 6:54 AM CST 5:14 PM CST
Civil Twilight 6:25 AM CST 5:43 PM CST
Nautical Twilight 5:52 AM CST 6:16 PM CST
Astronomical Twilight 5:20 AM CST 6:48 PM CST
Moon 12:07 PM CST (2/8) 2:07 AM CST (2/8)
Length of Visible Light 11h 18m
Length of Day
10h 20m
Waxing Gibbous, 69% of the Moon is Illuminated
Feb 8
Waxing Gibbous
Feb 14
Full
Feb 22
Last Quarter
Mar 1
New
Mar 8
First Quarter

Hourly Weather History & Observations

Time (CST) Temp. Windchill Dew Point Humidity Pressure Visibility Wind Dir Wind Speed Gust Speed Precip Events Conditions
12:15 AM 2.3 °F -8.8 °F -4.0 °F 75% 30.35 in 10.0 mi SSW 5.8 mph - N/A   Clear
12:35 AM -0.2 °F -10.1 °F -6.2 °F 76% 30.35 in 10.0 mi South 4.6 mph - N/A   Clear
12:55 AM 0.5 °F -9.3 °F -5.4 °F 76% 30.34 in 10.0 mi South 4.6 mph - N/A   Clear
1:15 AM 0.9 °F -8.9 °F -5.1 °F 76% 30.34 in 10.0 mi South 4.6 mph - N/A   Clear
1:35 AM 0.3 °F -9.5 °F -5.3 °F 77% 30.34 in 10.0 mi South 4.6 mph - N/A   Mostly Cloudy
1:55 AM 1.8 °F - -4.0 °F 77% 30.34 in 10.0 mi Calm Calm - N/A   Overcast
2:15 AM 2.3 °F - -3.6 °F 76% 30.32 in 10.0 mi Calm Calm - N/A   Overcast
2:35 AM 2.8 °F - -3.5 °F 75% 30.32 in 10.0 mi Calm Calm - N/A   Overcast
2:55 AM 3.6 °F -5.7 °F -2.9 °F 74% 30.32 in 10.0 mi South 4.6 mph - N/A   Overcast
3:15 AM 4.1 °F -5.1 °F -2.4 °F 75% 30.32 in 10.0 mi South 4.6 mph - N/A   Overcast
3:35 AM 4.1 °F -5.1 °F -2.4 °F 75% 30.31 in 10.0 mi South 4.6 mph - N/A   Overcast
3:55 AM 4.5 °F -6.3 °F -2.4 °F 73% 30.31 in 10.0 mi South 5.8 mph - N/A   Overcast
4:15 AM 4.6 °F -4.5 °F -2.2 °F 73% 30.31 in 10.0 mi SSW 4.6 mph - N/A   Overcast
4:35 AM 4.8 °F - -2.2 °F 73% 30.31 in 10.0 mi Calm Calm - N/A   Overcast
4:55 AM 4.8 °F - -2.2 °F 73% 30.30 in 10.0 mi Calm Calm - N/A Snow Light Snow
5:15 AM 5.0 °F -4.1 °F -2.0 °F 73% 30.30 in 7.0 mi South 4.6 mph - N/A Snow Light Snow
5:35 AM 5.4 °F - -1.1 °F 75% 30.29 in 10.0 mi Calm Calm - N/A Snow Light Snow
5:55 AM 5.5 °F - -1.1 °F 74% 30.29 in 10.0 mi Calm Calm - N/A Snow Light Snow
6:15 AM 5.7 °F - -1.3 °F 73% 30.29 in 10.0 mi Calm Calm - N/A Snow Light Snow
6:35 AM 5.9 °F - -0.4 °F 75% 30.28 in 10.0 mi Calm Calm - N/A Snow Light Snow
6:55 AM 6.4 °F - -0.4 °F 74% 30.28 in 10.0 mi Calm Calm - N/A Snow Light Snow
7:15 AM 6.8 °F -0.1 °F 0.3 °F 75% 30.28 in 7.0 mi SE 3.5 mph - N/A Snow Light Snow
7:35 AM 6.8 °F -0.1 °F 0.5 °F 75% 30.29 in 7.0 mi South 3.5 mph - N/A Snow Light Snow
7:55 AM 7.2 °F - 1.4 °F 77% 30.29 in 5.0 mi Calm Calm - N/A Snow Light Snow
8:15 AM 7.7 °F -0.9 °F 2.5 °F 79% 30.29 in 3.0 mi South 4.6 mph - N/A Snow Light Snow
8:35 AM 8.4 °F 1.8 °F 3.6 °F 81% 30.28 in 3.0 mi South 3.5 mph - N/A Snow Light Snow
8:55 AM 8.6 °F 2.0 °F 3.7 °F 81% 30.28 in 5.0 mi South 3.5 mph - N/A Snow Light Snow
9:15 AM 9.1 °F 0.8 °F 3.9 °F 79% 30.28 in 4.0 mi SSE 4.6 mph - N/A Snow Light Snow
9:35 AM 9.9 °F 3.4 °F 4.5 °F 79% 30.27 in 4.0 mi SSE 3.5 mph - N/A Snow Light Snow
9:55 AM 10.8 °F 0.0 °F 5.4 °F 79% 30.28 in 3.0 mi South 6.9 mph - N/A Snow Light Snow
10:15 AM 11.3 °F 1.9 °F 5.5 °F 78% 30.27 in 4.0 mi South 5.8 mph - N/A Snow Light Snow
10:35 AM 11.8 °F 2.5 °F 6.1 °F 78% 30.26 in 4.0 mi South 5.8 mph - N/A Snow Light Snow
10:55 AM 12.6 °F 3.4 °F 6.6 °F 77% 30.26 in 7.0 mi South 5.8 mph - N/A Snow Light Snow
11:15 AM 12.7 °F 2.4 °F 6.8 °F 77% 30.26 in 5.0 mi South 6.9 mph - N/A Snow Light Snow
11:35 AM 13.1 °F 5.4 °F 7.2 °F 77% 30.24 in 4.0 mi SSE 4.6 mph - N/A Snow Light Snow
11:55 AM 13.1 °F 1.8 °F 7.0 °F 77% 30.23 in 2.5 mi South 8.1 mph - N/A Snow Light Snow
12:15 PM 13.3 °F 4.2 °F 7.5 °F 78% 30.21 in 3.0 mi South 5.8 mph - N/A Snow Light Snow
12:35 PM 13.6 °F 6.0 °F 7.9 °F 78% 30.21 in 2.5 mi South 4.6 mph - N/A Snow Light Snow
12:55 PM 14.0 °F 2.9 °F 8.1 °F 77% 30.20 in 4.0 mi South 8.1 mph - N/A Snow Light Snow
1:15 PM 14.0 °F 6.5 °F 8.8 °F 80% 30.18 in 0.5 mi South 4.6 mph - N/A Snow Light Snow
1:35 PM 14.0 °F 6.5 °F 9.7 °F 83% 30.18 in 0.2 mi SSW 4.6 mph - N/A Snow Snow
1:55 PM 14.4 °F 6.9 °F 10.2 °F 84% 30.17 in 1.0 mi South 4.6 mph - N/A Snow Light Snow
2:15 PM 14.7 °F 5.9 °F 9.9 °F 81% 30.16 in 1.0 mi South 5.8 mph - N/A Snow Light Snow
2:35 PM 14.9 °F 6.1 °F 9.9 °F 80% 30.16 in 2.0 mi South 5.8 mph - N/A Snow Light Snow
2:55 PM 14.9 °F 7.5 °F 10.2 °F 82% 30.16 in 1.0 mi SSW 4.6 mph - N/A Snow Light Snow
3:15 PM 14.9 °F 9.2 °F 11.1 °F 85% 30.16 in 0.8 mi SSE 3.5 mph - N/A Snow Light Snow
3:35 PM 15.3 °F 6.6 °F 11.1 °F 84% 30.16 in 1.0 mi South 5.8 mph - N/A Snow Light Snow
3:55 PM 15.3 °F 5.4 °F 10.9 °F 83% 30.16 in 1.2 mi South 6.9 mph - N/A Snow Light Snow
4:15 PM 15.3 °F 6.6 °F 10.8 °F 82% 30.16 in 2.5 mi South 5.8 mph - N/A Snow Light Snow
4:35 PM 15.4 °F 6.8 °F 11.1 °F 83% 30.16 in 1.0 mi South 5.8 mph - N/A Snow Light Snow
4:55 PM 15.3 °F 6.6 °F 10.9 °F 83% 30.15 in 4.0 mi SSE 5.8 mph - N/A Snow Light Snow
5:15 PM 15.4 °F 8.1 °F 10.9 °F 82% 30.16 in 3.0 mi South 4.6 mph - N/A Snow Light Snow
5:35 PM 15.3 °F 9.6 °F 11.3 °F 84% 30.16 in 2.5 mi South 3.5 mph - N/A Snow Light Snow
5:55 PM 15.1 °F 7.7 °F 11.7 °F 86% 30.16 in 2.5 mi SSE 4.6 mph - N/A Snow Light Snow
6:15 PM 15.4 °F - 11.7 °F 85% 30.16 in 2.0 mi Calm Calm - N/A Snow Light Snow
6:35 PM 15.3 °F - 11.7 °F 86% 30.16 in 2.5 mi Calm Calm - N/A Snow Light Snow
6:55 PM 15.3 °F - 11.7 °F 86% 30.15 in 4.0 mi Calm Calm - N/A Snow Light Snow
7:15 PM 15.3 °F - 11.7 °F 86% 30.16 in 4.0 mi Calm Calm - N/A Snow Light Snow
7:35 PM 14.9 °F - 11.7 °F 87% 30.16 in 5.0 mi Calm Calm - N/A Snow Light Snow
7:55 PM 14.9 °F - 11.8 °F 88% 30.14 in 7.0 mi Calm Calm - N/A Snow Light Snow
8:15 PM 15.3 °F - 11.8 °F 86% 30.15 in 7.0 mi Calm Calm - N/A Snow Light Snow
8:35 PM 14.9 °F - 11.7 °F 87% 30.14 in 7.0 mi Calm Calm - N/A Snow Light Snow
8:55 PM 15.3 °F - 11.8 °F 86% 30.14 in 7.0 mi Calm Calm - N/A Snow Light Snow
9:15 PM 14.5 °F - 11.3 °F 87% 30.15 in 5.0 mi Calm Calm - N/A Snow Light Snow
9:35 PM 15.3 °F - 12.0 °F 87% 30.15 in 4.0 mi Calm Calm - N/A Snow Light Snow
9:55 PM 15.3 °F - 12.0 °F 87% 30.14 in 4.0 mi Calm Calm - N/A Snow Light Snow
10:15 PM 14.9 °F - 11.8 °F 88% 30.14 in 5.0 mi Calm Calm - N/A Snow Light Snow
10:35 PM 14.5 °F - 11.7 °F 88% 30.14 in 5.0 mi Calm Calm - N/A Snow Light Snow
10:55 PM 14.5 °F - 11.7 °F 88% 30.14 in 7.0 mi Calm Calm - N/A Snow Light Snow
11:15 PM 14.0 °F - 11.3 °F 89% 30.13 in 7.0 mi Calm Calm - N/A   Overcast
11:35 PM 14.5 °F - 11.8 °F 89% 30.13 in 7.0 mi Calm Calm - N/A   Overcast
11:55 PM 14.9 °F - 12.0 °F 88% 30.13 in 7.0 mi Calm Calm - N/A   Overcast